Find Gonets-D1 No. 23L

NORAD ID: 27059 Int'l Des: 2001-058 Owner: GONETS Country: RU operational
LEOCIRCULARPOLAR

实时位置

正在加载3D地球...

关于 Gonets-D1 No. 23L

正在加载描述...

即将过境

Passes for default location (London). Set your location on the main map for personalized predictions.

高度历史

Loading altitude history...

两行轨道根数

1 27059U 01058E 26122.19052505 -.00000022 00000-0 -18272-3 0 9996
2 27059 82.5411 242.1925 0002000 27.5393 332.5803 12.61556278120776
Epoch: May 2, 2026 • Age: 8 hours

当前状态

高度 1421.9 km
速度 7.15 km/s
星下点 35.76°N, 1.93°E
发射日期 Dec 28, 2001
运行时间 24.3 years
类型 other

技术详情

分类 Payload
质量 225.00 kg
干质量 225.00 kg
总质量 225.00 kg
长度 1.60 m
直径 0.80 m
跨度 7.00 m
形状 Cyl + Ant
制造商 NPOPMR
平台类型 Strela-3
阶段状态 In Orbit
所有者/国家 GONETS/RU

Most Searched